Time,TemperatureF,DewpointF,PressureIn,WindDirection,WindDirectionDegrees,WindSpeedMPH,WindSpeedGustMPH,Humidity,HourlyPrecipIn,Conditions,Clouds,dailyrainin,SoftwareType,DateUTC
2013-02-05 00:02:00,38.1,24.2,29.94,East,90,0.0,0.0,57,-99.99,,,0.00,wxRedirect v1.0,2013-02-05 06:02:00,
2013-02-05 00:08:00,38.1,24.2,29.94,East,90,0.0,0.0,57,-99.99,,,0.00,wxRedirect v1.0,2013-02-05 06:08:00,
2013-02-05 00:13:00,37.9,24.4,29.94,East,90,0.0,0.0,58,-99.99,,,0.00,wxRedirect v1.0,2013-02-05 06:13:00,
2013-02-05 00:18:00,37.9,24.4,29.94,SE,135,0.0,0.0,58,-99.99,,,0.00,wxRedirect v1.0,2013-02-05 06:18:00,
2013-02-05 00:24:00,37.8,24.3,29.94,SE,135,0.0,0.0,58,-99.99,,,0.00,wxRedirect v1.0,2013-02-05 06:24:00,
2013-02-05 00:29:00,37.6,24.1,29.94,SE,135,0.0,0.0,58,-99.99,,,0.00,wxRedirect v1.0,2013-02-05 06:29:00,
2013-02-05 00:34:00,37.6,24.1,29.93,SE,135,0.0,0.0,58,-99.99,,,0.00,wxRedirect v1.0,2013-02-05 06:34:00,
2013-02-05 00:40:00,37.2,23.8,29.93,SE,135,1.8,1.8,58,-99.99,,,0.00,wxRedirect v1.0,2013-02-05 06:40:00,
2013-02-05 00:45:00,37.2,23.8,29.93,SE,135,1.8,1.8,58,-99.99,,,0.00,wxRedirect v1.0,2013-02-05 06:45:00,
2013-02-05 00:50:00,36.7,23.7,29.92,SE,135,3.1,3.1,59,-99.99,,,0.00,wxRedirect v1.0,2013-02-05 06:50:00,
2013-02-05 00:56:00,36.5,23.6,29.92,SSE,157,1.1,3.1,59,-99.99,,,0.00,wxRedirect v1.0,2013-02-05 06:56:00,
2013-02-05 01:01:00,36.5,24.0,29.92,SSE,157,6.0,6.0,60,-99.99,,,0.00,wxRedirect v1.0,2013-02-05 07:01:00,
2013-02-05 01:06:00,36.3,23.8,29.92,SSE,157,0.0,6.0,60,-99.99,,,0.00,wxRedirect v1.0,2013-02-05 07:06:00,
2013-02-05 01:12:00,36.3,23.8,29.92,SSE,157,4.5,6.0,60,-99.99,,,0.00,wxRedirect v1.0,2013-02-05 07:12:00,
2013-02-05 01:17:00,36.3,23.8,29.92,SSE,157,0.0,4.5,60,-99.99,,,0.00,wxRedirect v1.0,2013-02-05 07:17:00,
2013-02-05 01:22:00,36.3,23.8,29.93,SSE,157,2.7,4.5,60,-99.99,,,0.00,wxRedirect v1.0,2013-02-05 07:22:00,
2013-02-05 01:28:00,36.3,23.8,29.93,SSE,157,4.3,4.3,60,-99.99,,,0.00,wxRedirect v1.0,2013-02-05 07:28:00,
2013-02-05 01:33:00,36.1,24.0,29.93,SSE,157,0.0,4.3,61,-99.99,,,0.00,wxRedirect v1.0,2013-02-05 07:33:00,
2013-02-05 01:38:00,36.1,24.0,29.92,SSE,157,2.0,6.0,61,-99.99,,,0.00,wxRedirect v1.0,2013-02-05 07:38:00,
2013-02-05 01:44:00,36.0,23.9,29.92,SSE,157,0.0,6.0,61,-99.99,,,0.00,wxRedirect v1.0,2013-02-05 07:44:00,
2013-02-05 01:49:00,36.0,23.9,29.92,SSE,157,1.8,2.2,61,-99.99,,,0.00,wxRedirect v1.0,2013-02-05 07:49:00,
2013-02-05 01:54:00,35.8,23.7,29.92,SSE,157,0.0,6.7,61,-99.99,,,0.00,wxRedirect v1.0,2013-02-05 07:54:00,
2013-02-05 02:00:00,35.8,23.7,29.93,SSE,157,2.7,6.7,61,-99.99,,,0.00,wxRedirect v1.0,2013-02-05 08:00:00,
2013-02-05 02:05:00,35.8,23.7,29.93,SSE,157,0.0,2.7,61,-99.99,,,0.00,wxRedirect v1.0,2013-02-05 08:05:00,
2013-02-05 02:10:00,35.8,23.7,29.93,SSE,157,0.0,0.0,61,-99.99,,,0.00,wxRedirect v1.0,2013-02-05 08:10:00,
2013-02-05 02:16:00,35.8,23.7,29.93,SSE,157,0.9,3.1,61,-99.99,,,0.00,wxRedirect v1.0,2013-02-05 08:16:00,
2013-02-05 02:21:00,35.8,23.7,29.93,SSE,157,0.0,3.1,61,-99.99,,,0.00,wxRedirect v1.0,2013-02-05 08:21:00,
2013-02-05 02:26:00,35.8,23.7,29.93,SSE,157,0.0,2.9,61,-99.99,,,0.00,wxRedirect v1.0,2013-02-05 08:26:00,
2013-02-05 02:32:00,35.8,24.1,29.93,SSE,157,3.1,3.1,62,-99.99,,,0.00,wxRedirect v1.0,2013-02-05 08:32:00,
2013-02-05 02:37:00,35.4,23.7,29.93,SSE,157,1.8,4.7,62,-99.99,,,0.00,wxRedirect v1.0,2013-02-05 08:37:00,
2013-02-05 02:42:00,35.4,23.7,29.93,SSE,157,0.0,4.7,62,-99.99,,,0.00,wxRedirect v1.0,2013-02-05 08:42:00,
2013-02-05 02:48:00,35.2,23.5,29.93,South,180,0.0,6.9,62,-99.99,,,0.00,wxRedirect v1.0,2013-02-05 08:48:00,
2013-02-05 02:53:00,35.2,23.5,29.92,SSE,157,2.7,6.9,62,-99.99,,,0.00,wxRedirect v1.0,2013-02-05 08:53:00,
2013-02-05 02:58:00,35.2,23.5,29.92,South,180,4.9,4.9,62,-99.99,,,0.00,wxRedirect v1.0,2013-02-05 08:58:00,
2013-02-05 03:04:00,35.2,23.9,29.92,South,180,2.5,4.9,63,-99.99,,,0.00,wxRedirect v1.0,2013-02-05 09:04:00,
2013-02-05 03:09:00,34.9,23.5,29.93,SSE,157,0.0,4.9,63,-99.99,,,0.00,wxRedirect v1.0,2013-02-05 09:09:00,
2013-02-05 03:14:00,34.9,23.5,29.92,SSE,157,0.0,2.9,63,-99.99,,,0.00,wxRedirect v1.0,2013-02-05 09:14:00,
2013-02-05 03:20:00,34.9,23.5,29.93,SSE,157,2.5,2.5,63,-99.99,,,0.00,wxRedirect v1.0,2013-02-05 09:20:00,
2013-02-05 03:25:00,34.9,23.5,29.93,SSE,157,0.0,2.5,63,-99.99,,,0.00,wxRedirect v1.0,2013-02-05 09:25:00,
2013-02-05 03:30:00,34.9,23.5,29.92,SSE,157,2.9,2.9,63,-99.99,,,0.00,wxRedirect v1.0,2013-02-05 09:30:00,
2013-02-05 03:36:00,34.9,23.5,29.92,SSE,157,0.0,2.9,63,-99.99,,,0.00,wxRedirect v1.0,2013-02-05 09:36:00,
2013-02-05 03:41:00,34.7,23.4,29.92,SSE,157,0.0,3.4,63,-99.99,,,0.00,wxRedirect v1.0,2013-02-05 09:41:00,
2013-02-05 03:46:00,34.5,23.2,29.92,SSE,157,0.0,3.4,63,-99.99,,,0.00,wxRedirect v1.0,2013-02-05 09:46:00,
2013-02-05 03:52:00,34.3,23.0,29.91,South,180,5.1,5.1,63,-99.99,,,0.00,wxRedirect v1.0,2013-02-05 09:52:00,
2013-02-05 03:57:00,34.3,23.4,29.92,South,180,3.4,5.1,64,-99.99,,,0.00,wxRedirect v1.0,2013-02-05 09:57:00,
2013-02-05 04:02:00,34.3,23.4,29.92,South,180,2.9,3.4,64,-99.99,,,0.00,wxRedirect v1.0,2013-02-05 10:02:00,
2013-02-05 04:08:00,34.2,23.2,29.92,South,180,2.5,2.9,64,-99.99,,,0.00,wxRedirect v1.0,2013-02-05 10:08:00,
2013-02-05 04:13:00,34.2,23.5,29.92,South,180,3.6,4.9,65,-99.99,,,0.00,wxRedirect v1.0,2013-02-05 10:13:00,
2013-02-05 04:18:00,34.0,23.4,29.93,South,180,0.9,4.9,65,-99.99,,,0.00,wxRedirect v1.0,2013-02-05 10:18:00,
2013-02-05 04:24:00,34.0,23.4,29.93,SSW,202,2.5,4.3,65,-99.99,,,0.00,wxRedirect v1.0,2013-02-05 10:24:00,
2013-02-05 04:29:00,34.0,23.4,29.93,SSW,202,2.9,2.9,65,-99.99,,,0.00,wxRedirect v1.0,2013-02-05 10:29:00,
2013-02-05 04:34:00,34.0,23.4,29.93,South,180,0.2,2.9,65,-99.99,,,0.00,wxRedirect v1.0,2013-02-05 10:34:00,
2013-02-05 04:40:00,34.0,23.4,29.94,South,180,1.3,4.3,65,-99.99,,,0.00,wxRedirect v1.0,2013-02-05 10:40:00,
2013-02-05 04:45:00,34.0,23.4,29.93,South,180,1.3,4.3,65,-99.99,,,0.00,wxRedirect v1.0,2013-02-05 10:45:00,
2013-02-05 04:50:00,33.6,23.0,29.93,South,180,0.0,4.3,65,-99.99,,,0.00,wxRedirect v1.0,2013-02-05 10:50:00,
2013-02-05 04:56:00,33.6,23.0,29.94,South,180,2.0,5.1,65,-99.99,,,0.00,wxRedirect v1.0,2013-02-05 10:56:00,
2013-02-05 05:01:00,33.6,23.4,29.93,South,180,0.0,5.1,66,-99.99,,,0.00,wxRedirect v1.0,2013-02-05 11:01:00,
2013-02-05 05:06:00,33.6,23.4,29.94,South,180,2.7,3.4,66,-99.99,,,0.00,wxRedirect v1.0,2013-02-05 11:06:00,
2013-02-05 05:12:00,33.6,23.0,29.94,SSW,202,0.4,2.7,65,-99.99,,,0.00,wxRedirect v1.0,2013-02-05 11:12:00,
2013-02-05 05:17:00,33.6,23.4,29.94,SSW,202,0.0,1.8,66,-99.99,,,0.00,wxRedirect v1.0,2013-02-05 11:17:00,
2013-02-05 05:22:00,33.6,23.4,29.94,SSW,202,0.0,0.0,66,-99.99,,,0.00,wxRedirect v1.0,2013-02-05 11:22:00,
2013-02-05 05:28:00,33.6,23.4,29.94,SW,225,3.4,3.4,66,-99.99,,,0.00,wxRedirect v1.0,2013-02-05 11:28:00,
2013-02-05 05:33:00,33.6,23.4,29.94,SSW,202,3.4,5.8,66,-99.99,,,0.00,wxRedirect v1.0,2013-02-05 11:33:00,
2013-02-05 05:38:00,33.4,23.2,29.94,SSW,202,4.0,5.8,66,-99.99,,,0.00,wxRedirect v1.0,2013-02-05 11:38:00,
2013-02-05 05:44:00,33.4,23.2,29.95,South,180,0.7,4.0,66,-99.99,,,0.00,wxRedirect v1.0,2013-02-05 11:44:00,
2013-02-05 05:49:00,33.4,23.2,29.95,SSW,202,0.0,4.0,66,-99.99,,,0.00,wxRedirect v1.0,2013-02-05 11:49:00,
2013-02-05 05:54:00,33.4,23.2,29.95,SSW,202,0.0,3.4,66,-99.99,,,0.00,wxRedirect v1.0,2013-02-05 11:54:00,
2013-02-05 06:00:00,33.4,23.2,29.95,SSW,202,0.7,5.1,66,-99.99,,,0.00,wxRedirect v1.0,2013-02-05 12:00:00,
2013-02-05 06:05:00,33.4,23.2,29.95,SSW,202,5.8,5.8,66,-99.99,,,0.00,wxRedirect v1.0,2013-02-05 12:05:00,
2013-02-05 06:10:00,33.4,23.2,29.95,South,180,0.0,5.8,66,-99.99,,,0.00,wxRedirect v1.0,2013-02-05 12:10:00,
2013-02-05 06:16:00,33.4,23.2,29.95,SSW,202,0.0,5.8,66,-99.99,,,0.00,wxRedirect v1.0,2013-02-05 12:16:00,
2013-02-05 06:21:00,33.4,23.2,29.95,SSW,202,0.0,3.8,66,-99.99,,,0.00,wxRedirect v1.0,2013-02-05 12:21:00,
2013-02-05 06:26:00,33.4,23.2,29.95,SW,225,0.0,0.7,66,-99.99,,,0.00,wxRedirect v1.0,2013-02-05 12:26:00,
2013-02-05 06:32:00,33.6,23.4,29.96,SW,225,2.7,2.7,66,-99.99,,,0.00,wxRedirect v1.0,2013-02-05 12:32:00,
2013-02-05 06:37:00,33.6,23.7,29.96,West,270,0.0,2.9,67,-99.99,,,0.00,wxRedirect v1.0,2013-02-05 12:37:00,
2013-02-05 06:42:00,33.6,23.7,29.96,West,270,1.8,3.1,67,-99.99,,,0.00,wxRedirect v1.0,2013-02-05 12:42:00,
2013-02-05 06:48:00,33.6,23.7,29.97,West,270,1.3,3.1,67,-99.99,,,0.00,wxRedirect v1.0,2013-02-05 12:48:00,
2013-02-05 06:53:00,33.6,23.7,29.98,WNW,292,2.9,2.9,67,-99.99,,,0.00,wxRedirect v1.0,2013-02-05 12:53:00,
2013-02-05 06:59:00,33.6,23.7,29.98,NW,315,3.1,4.9,67,-99.99,,,0.00,wxRedirect v1.0,2013-02-05 12:59:00,
2013-02-05 07:04:00,33.4,23.6,29.98,NW,315,2.7,4.9,67,-99.99,,,0.00,wxRedirect v1.0,2013-02-05 13:04:00,
2013-02-05 07:09:00,33.3,23.4,29.98,NW,315,1.3,3.4,67,-99.99,,,0.00,wxRedirect v1.0,2013-02-05 13:09:00,
2013-02-05 07:14:00,33.1,23.3,29.98,NW,315,0.0,1.6,67,-99.99,,,0.00,wxRedirect v1.0,2013-02-05 13:14:00,
2013-02-05 07:20:00,33.1,23.3,29.98,NW,315,0.0,1.3,67,-99.99,,,0.00,wxRedirect v1.0,2013-02-05 13:20:00,
2013-02-05 07:25:00,32.9,22.7,29.99,NW,315,0.0,0.0,66,-99.99,,,0.00,wxRedirect v1.0,2013-02-05 13:25:00,
2013-02-05 07:30:00,32.9,22.7,29.99,NW,315,0.0,0.0,66,-99.99,,,0.00,wxRedirect v1.0,2013-02-05 13:30:00,
2013-02-05 07:36:00,32.7,22.6,29.99,NW,315,0.0,0.0,66,-99.99,,,0.00,wxRedirect v1.0,2013-02-05 13:36:00,
2013-02-05 07:41:00,32.7,22.9,29.99,NW,315,0.0,0.0,67,-99.99,,,0.00,wxRedirect v1.0,2013-02-05 13:41:00,
2013-02-05 07:46:00,32.7,22.9,29.99,NW,315,0.0,0.0,67,-99.99,,,0.00,wxRedirect v1.0,2013-02-05 13:46:00,
2013-02-05 07:52:00,32.7,22.9,30.00,NW,315,0.0,0.0,67,-99.99,,,0.00,wxRedirect v1.0,2013-02-05 13:52:00,
2013-02-05 07:57:00,32.7,22.9,30.01,NW,315,0.0,0.0,67,-99.99,,,0.00,wxRedirect v1.0,2013-02-05 13:57:00,
2013-02-05 08:02:00,32.7,22.9,30.00,NW,315,0.0,0.0,67,-99.99,,,0.00,wxRedirect v1.0,2013-02-05 14:02:00,
2013-02-05 08:08:00,33.4,23.6,30.01,NW,315,0.0,0.0,67,-99.99,,,0.00,wxRedirect v1.0,2013-02-05 14:08:00,
2013-02-05 08:13:00,34.0,24.4,30.00,NW,315,0.0,0.0,68,-99.99,,,0.00,wxRedirect v1.0,2013-02-05 14:13:00,
2013-02-05 08:18:00,34.9,25.3,30.00,NW,315,0.0,0.0,68,-99.99,,,0.00,wxRedirect v1.0,2013-02-05 14:18:00,
2013-02-05 08:24:00,36.0,26.0,30.01,NW,315,0.0,0.0,67,-99.99,,,0.00,wxRedirect v1.0,2013-02-05 14:24:00,
2013-02-05 08:29:00,37.4,27.1,30.01,NW,315,0.0,3.1,66,-99.99,,,0.00,wxRedirect v1.0,2013-02-05 14:29:00,
2013-02-05 08:34:00,38.3,27.9,30.01,West,270,0.0,3.1,66,-99.99,,,0.00,wxRedirect v1.0,2013-02-05 14:34:00,
2013-02-05 08:40:00,39.9,28.7,30.00,West,270,0.0,0.0,64,-99.99,,,0.00,wxRedirect v1.0,2013-02-05 14:40:00,
2013-02-05 08:45:00,40.8,29.6,30.00,West,270,0.0,0.9,64,-99.99,,,0.00,wxRedirect v1.0,2013-02-05 14:45:00,
2013-02-05 08:50:00,42.4,30.3,30.00,WNW,292,0.0,0.9,62,-99.99,,,0.00,wxRedirect v1.0,2013-02-05 14:50:00,
2013-02-05 08:56:00,43.5,30.9,30.01,West,270,0.0,0.0,61,-99.99,,,0.00,wxRedirect v1.0,2013-02-05 14:56:00,
2013-02-05 09:01:00,45.1,32.1,30.01,West,270,4.7,4.7,60,-99.99,,,0.00,wxRedirect v1.0,2013-02-05 15:01:00,
2013-02-05 09:06:00,46.0,32.0,30.01,West,270,1.1,4.7,58,-99.99,,,0.00,wxRedirect v1.0,2013-02-05 15:06:00,
2013-02-05 09:12:00,47.3,32.8,30.00,West,270,3.1,4.0,57,-99.99,,,0.00,wxRedirect v1.0,2013-02-05 15:12:00,
2013-02-05 09:17:00,48.4,33.4,30.01,West,270,2.2,4.0,56,-99.99,,,0.00,wxRedirect v1.0,2013-02-05 15:17:00,
2013-02-05 09:22:00,49.6,33.6,30.01,WSW,247,3.8,3.8,54,-99.99,,,0.00,wxRedirect v1.0,2013-02-05 15:22:00,
2013-02-05 09:28:00,50.4,33.9,30.01,West,270,3.4,3.8,53,-99.99,,,0.00,wxRedirect v1.0,2013-02-05 15:28:00,
2013-02-05 09:33:00,51.6,35.0,30.01,West,270,2.9,3.6,53,-99.99,,,0.00,wxRedirect v1.0,2013-02-05 15:33:00,
2013-02-05 09:38:00,52.3,35.2,30.01,West,270,1.6,3.1,52,-99.99,,,0.00,wxRedirect v1.0,2013-02-05 15:38:00,
2013-02-05 09:44:00,53.8,35.6,30.00,WSW,247,0.9,3.4,50,-99.99,,,0.00,wxRedirect v1.0,2013-02-05 15:44:00,
2013-02-05 09:49:00,54.3,36.1,30.00,SW,225,0.9,4.7,50,-99.99,,,0.00,wxRedirect v1.0,2013-02-05 15:49:00,
2013-02-05 09:54:00,55.6,36.1,30.00,WSW,247,2.7,8.1,48,-99.99,,,0.00,wxRedirect v1.0,2013-02-05 15:54:00,
2013-02-05 10:00:00,56.1,36.1,30.00,SW,225,2.5,8.1,47,-99.99,,,0.00,wxRedirect v1.0,2013-02-05 16:00:00,
2013-02-05 10:05:00,57.0,36.4,30.00,West,270,2.9,4.9,46,-99.99,,,0.00,wxRedirect v1.0,2013-02-05 16:05:00,
2013-02-05 10:10:00,57.7,37.0,30.00,West,270,0.9,4.9,46,-99.99,,,0.00,wxRedirect v1.0,2013-02-05 16:10:00,
2013-02-05 10:16:00,58.6,37.3,30.00,West,270,3.6,3.6,45,-99.99,,,0.00,wxRedirect v1.0,2013-02-05 16:16:00,
2013-02-05 10:21:00,58.8,36.8,30.00,West,270,2.9,5.4,44,-99.99,,,0.00,wxRedirect v1.0,2013-02-05 16:21:00,
2013-02-05 10:26:00,60.1,37.4,30.00,WSW,247,5.4,5.4,43,-99.99,,,0.00,wxRedirect v1.0,2013-02-05 16:26:00,
2013-02-05 10:32:00,60.6,37.3,30.00,West,270,0.0,5.4,42,-99.99,,,0.00,wxRedirect v1.0,2013-02-05 16:32:00,
2013-02-05 10:37:00,61.5,37.0,30.01,West,270,5.4,5.4,40,-99.99,,,0.00,wxRedirect v1.0,2013-02-05 16:37:00,
2013-02-05 10:42:00,62.1,37.5,30.01,WNW,292,3.1,5.4,40,-99.99,,,0.00,wxRedirect v1.0,2013-02-05 16:42:00,
2013-02-05 10:48:00,62.8,37.4,30.01,NW,315,5.4,8.7,39,-99.99,,,0.00,wxRedirect v1.0,2013-02-05 16:48:00,
2013-02-05 10:53:00,63.1,37.0,30.01,NW,315,4.7,8.7,38,-99.99,,,0.00,wxRedirect v1.0,2013-02-05 16:53:00,
2013-02-05 10:58:00,63.7,37.5,30.01,NW,315,8.3,8.3,38,-99.99,,,0.00,wxRedirect v1.0,2013-02-05 16:58:00,
2013-02-05 11:04:00,64.2,37.2,30.01,NW,315,4.9,8.9,37,-99.99,,,0.00,wxRedirect v1.0,2013-02-05 17:04:00,
2013-02-05 11:09:00,64.8,37.0,30.01,NW,315,10.7,10.7,36,-99.99,,,0.00,wxRedirect v1.0,2013-02-05 17:09:00,
2013-02-05 11:14:00,64.9,37.2,30.01,West,270,8.3,10.7,36,-99.99,,,0.00,wxRedirect v1.0,2013-02-05 17:14:00,
2013-02-05 11:20:00,65.5,36.9,30.01,NW,315,8.7,10.7,35,-99.99,,,0.00,wxRedirect v1.0,2013-02-05 17:20:00,
2013-02-05 11:25:00,65.8,37.3,30.01,NNW,337,8.7,8.7,35,-99.99,,,0.00,wxRedirect v1.0,2013-02-05 17:25:00,
2013-02-05 11:30:00,66.2,36.9,30.01,NW,315,6.0,8.7,34,-99.99,,,0.00,wxRedirect v1.0,2013-02-05 17:30:00,
2013-02-05 11:36:00,66.4,36.3,30.01,NNW,337,7.4,7.4,33,-99.99,,,0.00,wxRedirect v1.0,2013-02-05 17:36:00,
2013-02-05 11:41:00,66.6,36.4,30.01,West,270,6.7,7.4,33,-99.99,,,0.00,wxRedirect v1.0,2013-02-05 17:41:00,
2013-02-05 11:46:00,66.7,37.3,30.01,NNE,22,6.7,10.1,34,-99.99,,,0.00,wxRedirect v1.0,2013-02-05 17:46:00,
2013-02-05 11:52:00,66.9,36.7,30.01,WNW,292,6.5,10.3,33,-99.99,,,0.00,wxRedirect v1.0,2013-02-05 17:52:00,
2013-02-05 11:57:00,67.3,37.0,30.01,WNW,292,8.3,10.3,33,-99.99,,,0.00,wxRedirect v1.0,2013-02-05 17:57:00,
2013-02-05 12:02:00,67.3,37.0,30.01,NNW,337,11.6,11.6,33,-99.99,,,0.00,wxRedirect v1.0,2013-02-05 18:02:00,
2013-02-05 12:08:00,67.3,36.3,30.01,NNW,337,2.5,11.6,32,-99.99,,,0.00,wxRedirect v1.0,2013-02-05 18:08:00,
2013-02-05 12:13:00,67.3,36.3,30.01,NW,315,9.4,11.6,32,-99.99,,,0.00,wxRedirect v1.0,2013-02-05 18:13:00,
2013-02-05 12:18:00,67.3,36.3,30.01,NNW,337,11.0,11.0,32,-99.99,,,0.00,wxRedirect v1.0,2013-02-05 18:18:00,
2013-02-05 12:24:00,67.3,35.6,30.01,NNE,22,3.8,11.9,31,-99.99,,,0.00,wxRedirect v1.0,2013-02-05 18:24:00,
2013-02-05 12:29:00,67.1,35.4,30.01,NNW,337,13.0,13.0,31,-99.99,,,0.00,wxRedirect v1.0,2013-02-05 18:29:00,
2013-02-05 12:34:00,66.9,35.3,30.01,NNW,337,7.2,15.7,31,-99.99,,,0.00,wxRedirect v1.0,2013-02-05 18:34:00,
2013-02-05 12:40:00,66.9,35.3,30.01,North,0,4.0,15.7,31,-99.99,,,0.00,wxRedirect v1.0,2013-02-05 18:40:00,
2013-02-05 12:45:00,66.7,34.4,30.01,North,0,6.5,15.0,30,-99.99,,,0.00,wxRedirect v1.0,2013-02-05 18:45:00,
2013-02-05 12:50:00,66.2,34.0,30.01,NNE,22,1.1,15.0,30,-99.99,,,0.00,wxRedirect v1.0,2013-02-05 18:50:00,
2013-02-05 12:56:00,66.0,34.5,30.01,NNE,22,1.6,10.1,31,-99.99,,,0.00,wxRedirect v1.0,2013-02-05 18:56:00,
2013-02-05 13:01:00,65.8,34.4,30.01,NNE,22,1.1,10.1,31,-99.99,,,0.00,wxRedirect v1.0,2013-02-05 19:01:00,
2013-02-05 13:06:00,65.8,34.4,30.01,NE,45,11.4,11.4,31,-99.99,,,0.00,wxRedirect v1.0,2013-02-05 19:06:00,
2013-02-05 13:12:00,65.7,34.2,30.01,NNE,22,9.2,11.4,31,-99.99,,,0.00,wxRedirect v1.0,2013-02-05 19:12:00,
2013-02-05 13:17:00,65.5,34.1,30.01,NNW,337,8.3,13.6,31,-99.99,,,0.00,wxRedirect v1.0,2013-02-05 19:17:00,
2013-02-05 13:23:00,65.1,33.0,30.00,ENE,67,0.0,13.6,30,-99.99,,,0.00,wxRedirect v1.0,2013-02-05 19:23:00,
2013-02-05 13:28:00,64.9,33.6,30.00,NNE,22,7.4,11.9,31,-99.99,,,0.00,wxRedirect v1.0,2013-02-05 19:28:00,
2013-02-05 13:33:00,64.9,33.6,30.01,NE,45,8.5,11.6,31,-99.99,,,0.00,wxRedirect v1.0,2013-02-05 19:33:00,
2013-02-05 13:38:00,64.9,33.6,30.00,ENE,67,3.8,11.6,31,-99.99,,,0.00,wxRedirect v1.0,2013-02-05 19:38:00,
2013-02-05 13:44:00,64.6,32.5,30.00,NE,45,6.0,14.8,30,-99.99,,,0.00,wxRedirect v1.0,2013-02-05 19:44:00,
2013-02-05 13:49:00,64.2,31.2,30.01,North,0,10.3,14.8,29,-99.99,,,0.00,wxRedirect v1.0,2013-02-05 19:49:00,
2013-02-05 13:54:00,64.0,32.8,30.00,NE,45,7.2,11.2,31,-99.99,,,0.00,wxRedirect v1.0,2013-02-05 19:54:00,
2013-02-05 14:00:00,64.2,32.9,29.99,North,0,0.4,9.6,31,-99.99,,,0.00,wxRedirect v1.0,2013-02-05 20:00:00,
2013-02-05 14:05:00,64.2,32.9,29.99,North,0,4.9,7.2,31,-99.99,,,0.00,wxRedirect v1.0,2013-02-05 20:05:00,
2013-02-05 14:10:00,64.2,32.9,29.99,NNE,22,2.2,10.1,31,-99.99,,,0.00,wxRedirect v1.0,2013-02-05 20:10:00,
2013-02-05 14:15:00,64.4,33.1,29.99,NE,45,1.6,10.1,31,-99.99,,,0.00,wxRedirect v1.0,2013-02-05 20:15:00,
2013-02-05 14:21:00,64.2,31.2,29.99,NE,45,3.4,8.9,29,-99.99,,,0.00,wxRedirect v1.0,2013-02-05 20:21:00,
2013-02-05 14:26:00,64.2,31.2,29.99,NNE,22,2.9,5.6,29,-99.99,,,0.00,wxRedirect v1.0,2013-02-05 20:26:00,
2013-02-05 14:31:00,64.2,31.2,29.99,ENE,67,2.7,3.8,29,-99.99,,,0.00,wxRedirect v1.0,2013-02-05 20:31:00,
2013-02-05 14:37:00,64.2,31.2,29.99,ENE,67,3.1,7.2,29,-99.99,,,0.00,wxRedirect v1.0,2013-02-05 20:37:00,
2013-02-05 14:42:00,64.2,31.2,29.99,East,90,0.0,7.2,29,-99.99,,,0.00,wxRedirect v1.0,2013-02-05 20:42:00,
2013-02-05 14:47:00,64.2,31.2,29.99,NNE,22,4.0,8.3,29,-99.99,,,0.00,wxRedirect v1.0,2013-02-05 20:47:00,
2013-02-05 14:53:00,64.2,32.2,29.99,NNE,22,1.8,8.3,30,-99.99,,,0.00,wxRedirect v1.0,2013-02-05 20:53:00,
2013-02-05 14:58:00,64.2,31.2,29.99,North,0,5.1,8.3,29,-99.99,,,0.00,wxRedirect v1.0,2013-02-05 20:58:00,
2013-02-05 15:03:00,64.6,31.5,29.98,NE,45,8.9,8.9,29,-99.99,,,0.00,wxRedirect v1.0,2013-02-05 21:03:00,
2013-02-05 15:09:00,64.2,31.2,29.98,ENE,67,5.1,8.9,29,-99.99,,,0.00,wxRedirect v1.0,2013-02-05 21:09:00,
2013-02-05 15:14:00,64.2,31.2,29.98,NE,45,0.0,8.5,29,-99.99,,,0.00,wxRedirect v1.0,2013-02-05 21:14:00,
2013-02-05 15:19:00,64.2,30.2,29.98,ENE,67,4.3,8.5,28,-99.99,,,0.00,wxRedirect v1.0,2013-02-05 21:19:00,
2013-02-05 15:25:00,64.2,31.2,29.98,ENE,67,1.3,4.9,29,-99.99,,,0.00,wxRedirect v1.0,2013-02-05 21:25:00,
2013-02-05 15:30:00,64.0,30.1,29.98,NNE,22,11.2,11.2,28,-99.99,,,0.00,wxRedirect v1.0,2013-02-05 21:30:00,
2013-02-05 15:35:00,64.0,30.1,29.98,NE,45,0.0,11.2,28,-99.99,,,0.00,wxRedirect v1.0,2013-02-05 21:35:00,
2013-02-05 15:41:00,64.0,31.0,29.98,NE,45,0.0,3.8,29,-99.99,,,0.00,wxRedirect v1.0,2013-02-05 21:41:00,
2013-02-05 15:46:00,64.0,30.1,29.98,NE,45,5.1,5.1,28,-99.99,,,0.00,wxRedirect v1.0,2013-02-05 21:46:00,
2013-02-05 15:51:00,63.7,29.7,29.98,NE,45,4.5,6.7,28,-99.99,,,0.00,wxRedirect v1.0,2013-02-05 21:51:00,
2013-02-05 15:57:00,63.7,29.7,29.98,NE,45,0.0,6.7,28,-99.99,,,0.00,wxRedirect v1.0,2013-02-05 21:57:00,
2013-02-05 16:02:00,63.7,29.7,29.98,NE,45,0.0,6.5,28,-99.99,,,0.00,wxRedirect v1.0,2013-02-05 22:02:00,
2013-02-05 16:07:00,63.7,29.7,29.99,NNE,22,3.6,3.6,28,-99.99,,,0.00,wxRedirect v1.0,2013-02-05 22:07:00,
2013-02-05 16:13:00,63.7,29.7,29.99,NE,45,2.7,3.6,28,-99.99,,,0.00,wxRedirect v1.0,2013-02-05 22:13:00,
2013-02-05 16:18:00,63.7,29.7,29.99,NE,45,4.9,7.2,28,-99.99,,,0.00,wxRedirect v1.0,2013-02-05 22:18:00,
2013-02-05 16:23:00,63.5,29.6,29.99,NE,45,0.7,7.2,28,-99.99,,,0.00,wxRedirect v1.0,2013-02-05 22:23:00,
2013-02-05 16:29:00,63.5,30.6,29.98,NNE,22,9.6,9.6,29,-99.99,,,0.00,wxRedirect v1.0,2013-02-05 22:29:00,
2013-02-05 16:34:00,63.5,29.6,29.99,NE,45,3.6,9.6,28,-99.99,,,0.00,wxRedirect v1.0,2013-02-05 22:34:00,
2013-02-05 16:39:00,63.1,30.2,29.99,NE,45,0.0,8.3,29,-99.99,,,0.00,wxRedirect v1.0,2013-02-05 22:39:00,
2013-02-05 16:45:00,63.1,30.2,29.98,NE,45,6.9,6.9,29,-99.99,,,0.00,wxRedirect v1.0,2013-02-05 22:45:00,
2013-02-05 16:50:00,63.0,30.1,29.99,ENE,67,1.8,6.9,29,-99.99,,,0.00,wxRedirect v1.0,2013-02-05 22:50:00,
2013-02-05 16:55:00,62.8,29.9,29.99,NE,45,2.9,3.6,29,-99.99,,,0.00,wxRedirect v1.0,2013-02-05 22:55:00,
2013-02-05 17:01:00,62.8,29.9,29.98,NE,45,0.0,3.4,29,-99.99,,,0.00,wxRedirect v1.0,2013-02-05 23:01:00,
2013-02-05 17:06:00,62.4,29.6,29.98,NE,45,0.0,3.4,29,-99.99,,,0.00,wxRedirect v1.0,2013-02-05 23:06:00,
2013-02-05 17:11:00,62.4,29.6,29.98,NE,45,0.0,2.7,29,-99.99,,,0.00,wxRedirect v1.0,2013-02-05 23:11:00,
2013-02-05 17:17:00,62.4,29.6,29.98,ENE,67,1.6,2.7,29,-99.99,,,0.00,wxRedirect v1.0,2013-02-05 23:17:00,
2013-02-05 17:22:00,62.2,29.4,29.98,ENE,67,0.0,1.6,29,-99.99,,,0.00,wxRedirect v1.0,2013-02-05 23:22:00,
2013-02-05 17:27:00,62.1,30.3,29.98,ENE,67,0.0,0.0,30,-99.99,,,0.00,wxRedirect v1.0,2013-02-05 23:27:00,
2013-02-05 17:33:00,61.9,30.1,29.99,ENE,67,0.0,0.0,30,-99.99,,,0.00,wxRedirect v1.0,2013-02-05 23:33:00,
2013-02-05 17:38:00,61.9,30.1,29.99,ENE,67,0.0,0.0,30,-99.99,,,0.00,wxRedirect v1.0,2013-02-05 23:38:00,
2013-02-05 17:43:00,61.7,29.9,29.99,ENE,67,0.0,0.0,30,-99.99,,,0.00,wxRedirect v1.0,2013-02-05 23:43:00,
2013-02-05 17:49:00,61.7,29.9,29.99,ENE,67,0.0,0.0,30,-99.99,,,0.00,wxRedirect v1.0,2013-02-05 23:49:00,
2013-02-05 17:54:00,61.5,29.8,29.99,ENE,67,0.0,0.0,30,-99.99,,,0.00,wxRedirect v1.0,2013-02-05 23:54:00,
2013-02-05 17:59:00,61.5,30.5,29.99,ENE,67,0.0,0.0,31,-99.99,,,0.00,wxRedirect v1.0,2013-02-05 23:59:00,
2013-02-05 18:05:00,61.3,31.0,29.99,ENE,67,0.0,0.0,32,-99.99,,,0.00,wxRedirect v1.0,2013-02-06 00:05:00,
2013-02-05 18:10:00,61.2,30.9,29.99,ENE,67,0.0,0.0,32,-99.99,,,0.00,wxRedirect v1.0,2013-02-06 00:10:00,
2013-02-05 18:15:00,61.0,30.7,29.99,ENE,67,0.0,0.0,32,-99.99,,,0.00,wxRedirect v1.0,2013-02-06 00:15:00,
2013-02-05 18:21:00,60.8,30.6,29.99,ENE,67,0.0,0.0,32,-99.99,,,0.00,wxRedirect v1.0,2013-02-06 00:21:00,
2013-02-05 18:26:00,60.6,30.4,29.99,ENE,67,0.0,0.0,32,-99.99,,,0.00,wxRedirect v1.0,2013-02-06 00:26:00,
2013-02-05 18:31:00,60.4,30.3,29.99,ENE,67,0.0,0.0,32,-99.99,,,0.00,wxRedirect v1.0,2013-02-06 00:31:00,
2013-02-05 18:36:00,60.1,30.7,30.00,ENE,67,0.0,0.0,33,-99.99,,,0.00,wxRedirect v1.0,2013-02-06 00:36:00,
2013-02-05 18:42:00,59.9,30.5,30.00,ENE,67,0.0,0.0,33,-99.99,,,0.00,wxRedirect v1.0,2013-02-06 00:42:00,
2013-02-05 18:47:00,59.5,30.2,30.00,ENE,67,0.0,0.0,33,-99.99,,,0.00,wxRedirect v1.0,2013-02-06 00:47:00,
2013-02-05 18:53:00,59.2,29.9,30.00,ENE,67,0.0,0.0,33,-99.99,,,0.00,wxRedirect v1.0,2013-02-06 00:53:00,
2013-02-05 18:58:00,58.8,29.6,30.00,ENE,67,0.0,0.0,33,-99.99,,,0.00,wxRedirect v1.0,2013-02-06 00:58:00,
2013-02-05 19:03:00,58.8,29.6,30.00,ENE,67,0.0,0.0,33,-99.99,,,0.00,wxRedirect v1.0,2013-02-06 01:03:00,
2013-02-05 19:09:00,58.5,30.0,30.00,ENE,67,0.0,0.0,34,-99.99,,,0.00,wxRedirect v1.0,2013-02-06 01:09:00,
2013-02-05 19:14:00,58.1,29.7,30.01,ENE,67,0.0,0.0,34,-99.99,,,0.00,wxRedirect v1.0,2013-02-06 01:14:00,
2013-02-05 19:19:00,57.9,29.5,30.01,ENE,67,0.0,0.0,34,-99.99,,,0.00,wxRedirect v1.0,2013-02-06 01:19:00,
2013-02-05 19:24:00,57.6,29.2,30.01,ENE,67,0.0,0.0,34,-99.99,,,0.00,wxRedirect v1.0,2013-02-06 01:24:00,
2013-02-05 19:30:00,57.0,28.7,30.01,ENE,67,0.0,0.0,34,-99.99,,,0.00,wxRedirect v1.0,2013-02-06 01:30:00,
2013-02-05 19:35:00,57.0,28.7,30.01,ENE,67,0.0,0.0,34,-99.99,,,0.00,wxRedirect v1.0,2013-02-06 01:35:00,
2013-02-05 19:41:00,56.5,28.2,30.01,ENE,67,0.0,0.0,34,-99.99,,,0.00,wxRedirect v1.0,2013-02-06 01:41:00,
2013-02-05 19:46:00,56.3,28.8,30.01,ENE,67,0.0,0.0,35,-99.99,,,0.00,wxRedirect v1.0,2013-02-06 01:46:00,
2013-02-05 19:51:00,56.1,28.6,30.01,ENE,67,0.0,0.0,35,-99.99,,,0.00,wxRedirect v1.0,2013-02-06 01:51:00,
2013-02-05 19:57:00,55.9,28.4,30.01,ENE,67,0.0,0.0,35,-99.99,,,0.00,wxRedirect v1.0,2013-02-06 01:57:00,
2013-02-05 20:02:00,55.6,28.1,30.01,ENE,67,0.0,0.0,35,-99.99,,,0.00,wxRedirect v1.0,2013-02-06 02:02:00,
2013-02-05 20:07:00,55.2,27.1,30.01,ENE,67,0.0,0.0,34,-99.99,,,0.00,wxRedirect v1.0,2013-02-06 02:07:00,
2013-02-05 20:13:00,55.0,26.9,30.02,ENE,67,0.0,0.0,34,-99.99,,,0.00,wxRedirect v1.0,2013-02-06 02:13:00,
2013-02-05 20:18:00,54.9,26.8,30.01,ENE,67,0.0,0.0,34,-99.99,,,0.00,wxRedirect v1.0,2013-02-06 02:18:00,
2013-02-05 20:23:00,54.5,27.2,30.01,ENE,67,0.0,0.0,35,-99.99,,,0.00,wxRedirect v1.0,2013-02-06 02:23:00,
2013-02-05 20:29:00,54.3,27.0,30.01,ENE,67,1.8,1.8,35,-99.99,,,0.00,wxRedirect v1.0,2013-02-06 02:29:00,
2013-02-05 20:34:00,54.1,27.6,30.02,NE,45,0.0,1.8,36,-99.99,,,0.00,wxRedirect v1.0,2013-02-06 02:34:00,
2013-02-05 20:39:00,53.8,26.6,30.02,NE,45,0.0,0.0,35,-99.99,,,0.00,wxRedirect v1.0,2013-02-06 02:39:00,
2013-02-05 20:44:00,53.2,26.1,30.02,ENE,67,2.0,2.5,35,-99.99,,,0.00,wxRedirect v1.0,2013-02-06 02:44:00,
2013-02-05 20:50:00,52.7,26.3,30.02,NE,45,5.6,5.6,36,-99.99,,,0.00,wxRedirect v1.0,2013-02-06 02:50:00,
2013-02-05 20:55:00,52.5,26.1,30.03,ENE,67,0.0,5.6,36,-99.99,,,0.00,wxRedirect v1.0,2013-02-06 02:55:00,
2013-02-05 21:01:00,52.2,26.5,30.03,ENE,67,2.9,3.4,37,-99.99,,,0.00,wxRedirect v1.0,2013-02-06 03:01:00,
2013-02-05 21:06:00,51.8,26.2,30.03,ENE,67,2.0,3.4,37,-99.99,,,0.00,wxRedirect v1.0,2013-02-06 03:06:00,
2013-02-05 21:11:00,51.4,26.5,30.04,ENE,67,0.0,2.0,38,-99.99,,,0.00,wxRedirect v1.0,2013-02-06 03:11:00,
2013-02-05 21:17:00,51.1,26.9,30.03,ESE,112,6.7,6.7,39,-99.99,,,0.00,wxRedirect v1.0,2013-02-06 03:17:00,
2013-02-05 21:22:00,50.9,26.0,30.04,ENE,67,3.8,6.7,38,-99.99,,,0.00,wxRedirect v1.0,2013-02-06 03:22:00,
2013-02-05 21:27:00,50.7,27.2,30.04,East,90,1.8,3.8,40,-99.99,,,0.00,wxRedirect v1.0,2013-02-06 03:27:00,
2013-02-05 21:33:00,50.5,27.1,30.04,East,90,0.0,7.2,40,-99.99,,,0.00,wxRedirect v1.0,2013-02-06 03:33:00,
2013-02-05 21:38:00,50.2,26.8,30.04,East,90,1.3,7.2,40,-99.99,,,0.00,wxRedirect v1.0,2013-02-06 03:38:00,
2013-02-05 21:43:00,49.8,27.0,30.04,East,90,0.0,2.9,41,-99.99,,,0.00,wxRedirect v1.0,2013-02-06 03:43:00,
2013-02-05 21:49:00,49.8,27.0,30.04,ESE,112,0.0,4.0,41,-99.99,,,0.00,wxRedirect v1.0,2013-02-06 03:49:00,
2013-02-05 21:54:00,49.8,27.0,30.04,East,90,5.1,5.1,41,-99.99,,,0.00,wxRedirect v1.0,2013-02-06 03:54:00,
2013-02-05 21:59:00,49.6,27.4,30.04,ENE,67,4.0,5.1,42,-99.99,,,0.00,wxRedirect v1.0,2013-02-06 03:59:00,
2013-02-05 22:05:00,49.5,27.2,30.04,ESE,112,2.5,4.0,42,-99.99,,,0.00,wxRedirect v1.0,2013-02-06 04:05:00,
2013-02-05 22:10:00,49.3,27.1,30.04,ESE,112,0.0,4.5,42,-99.99,,,0.00,wxRedirect v1.0,2013-02-06 04:10:00,
2013-02-05 22:15:00,49.3,27.1,30.04,East,90,0.0,4.5,42,-99.99,,,0.00,wxRedirect v1.0,2013-02-06 04:15:00,
2013-02-05 22:21:00,49.3,27.1,30.04,ESE,112,0.0,2.0,42,-99.99,,,0.00,wxRedirect v1.0,2013-02-06 04:21:00,
2013-02-05 22:26:00,49.1,26.9,30.04,ESE,112,0.0,2.0,42,-99.99,,,0.00,wxRedirect v1.0,2013-02-06 04:26:00,
2013-02-05 22:31:00,49.1,26.9,30.04,East,90,0.0,0.0,42,-99.99,,,0.00,wxRedirect v1.0,2013-02-06 04:31:00,
2013-02-05 22:37:00,49.1,27.4,30.04,East,90,1.8,1.8,43,-99.99,,,0.00,wxRedirect v1.0,2013-02-06 04:37:00,
2013-02-05 22:42:00,48.9,27.3,30.04,ESE,112,2.9,2.9,43,-99.99,,,0.00,wxRedirect v1.0,2013-02-06 04:42:00,
2013-02-05 22:47:00,48.7,26.5,30.04,ESE,112,2.9,2.9,42,-99.99,,,0.00,wxRedirect v1.0,2013-02-06 04:47:00,
2013-02-05 22:52:00,48.7,27.1,30.04,ESE,112,2.5,2.9,43,-99.99,,,0.00,wxRedirect v1.0,2013-02-06 04:52:00,
2013-02-05 22:58:00,48.6,26.9,30.04,ESE,112,3.1,4.7,43,-99.99,,,0.00,wxRedirect v1.0,2013-02-06 04:58:00,
2013-02-05 23:00:00,48.6,26.9,30.04,ESE,112,6.3,6.3,43,-99.99,,,0.00,wxRedirect v1.0,2013-02-06 05:00:00,
2013-02-05 23:01:00,48.6,26.9,30.04,ESE,112,6.3,6.3,43,-99.99,,,0.00,wxRedirect v1.0,2013-02-06 05:01:00,
2013-02-05 23:02:00,48.6,26.9,30.04,ESE,112,1.8,6.3,43,-99.99,,,0.00,wxRedirect v1.0,2013-02-06 05:02:00,
2013-02-05 23:07:00,48.4,26.8,30.04,East,90,2.2,6.3,43,-99.99,,,0.00,wxRedirect v1.0,2013-02-06 05:07:00,
2013-02-05 23:13:00,48.2,27.1,30.04,ESE,112,2.2,5.6,44,-99.99,,,0.00,wxRedirect v1.0,2013-02-06 05:13:00,
2013-02-05 23:18:00,48.2,27.1,30.04,ESE,112,1.3,5.6,44,-99.99,,,0.00,wxRedirect v1.0,2013-02-06 05:18:00,
2013-02-05 23:24:00,48.0,27.0,30.04,ESE,112,1.6,7.4,44,-99.99,,,0.00,wxRedirect v1.0,2013-02-06 05:24:00,
2013-02-05 23:29:00,48.0,27.0,30.04,ESE,112,0.9,7.4,44,-99.99,,,0.00,wxRedirect v1.0,2013-02-06 05:29:00,
2013-02-05 23:34:00,47.8,26.8,30.04,ESE,112,4.0,5.4,44,-99.99,,,0.00,wxRedirect v1.0,2013-02-06 05:34:00,
2013-02-05 23:39:00,47.8,27.4,30.04,ESE,112,1.8,4.0,45,-99.99,,,0.00,wxRedirect v1.0,2013-02-06 05:39:00,
2013-02-05 23:45:00,47.7,27.2,30.04,ESE,112,0.0,4.0,45,-99.99,,,0.00,wxRedirect v1.0,2013-02-06 05:45:00,
2013-02-05 23:50:00,47.8,27.4,30.04,ESE,112,0.0,2.7,45,-99.99,,,0.00,wxRedirect v1.0,2013-02-06 05:50:00,
2013-02-05 23:55:00,47.7,27.2,30.04,ESE,112,1.6,1.6,45,-99.99,,,0.00,wxRedirect v1.0,2013-02-06 05:55:00,